Time,TemperatureF,DewpointF,PressureIn,WindDirection,WindDirectionDegrees,WindSpeedMPH,WindSpeedGustMPH,Humidity,HourlyPrecipIn,Conditions,Clouds,dailyrainin,SoftwareType,DateUTC
2013-03-02 00:00:00,34.1,31.5,30.05,West,277,3.0,3.0,90,0.00,,,0.00,Wunderground v.1.13,2013-03-02 05:00:00,
2013-03-02 00:01:00,34.1,31.5,30.05,West,277,2.0,11.0,90,0.00,,,0.00,Wunderground v.1.13,2013-03-02 05:01:00,
2013-03-02 00:05:00,34.1,31.5,30.04,West,277,3.0,11.0,90,0.00,,,0.00,Wunderground v.1.13,2013-03-02 05:05:00,
2013-03-02 00:11:00,34.1,31.5,30.04,West,277,2.0,4.0,90,0.00,,,0.00,Wunderground v.1.13,2013-03-02 05:11:00,
2013-03-02 00:17:00,34.1,31.5,30.04,West,277,2.0,11.0,90,0.00,,,0.00,Wunderground v.1.13,2013-03-02 05:17:00,
2013-03-02 00:22:00,34.1,31.5,30.04,West,277,2.0,11.0,90,0.00,,,0.00,Wunderground v.1.13,2013-03-02 05:22:00,
2013-03-02 00:27:00,34.1,31.5,30.04,West,277,2.0,11.0,90,0.00,,,0.00,Wunderground v.1.13,2013-03-02 05:27:00,
2013-03-02 00:33:00,34.0,31.4,30.04,West,277,1.0,11.0,90,0.00,,,0.00,Wunderground v.1.13,2013-03-02 05:33:00,
2013-03-02 00:38:00,33.9,31.3,30.04,West,277,1.0,11.0,90,0.00,,,0.00,Wunderground v.1.13,2013-03-02 05:38:00,
2013-03-02 00:43:00,33.9,31.3,30.04,West,277,1.0,11.0,90,0.00,,,0.00,Wunderground v.1.13,2013-03-02 05:43:00,
2013-03-02 00:48:00,33.9,31.6,30.04,West,277,1.0,11.0,91,0.00,,,0.00,Wunderground v.1.13,2013-03-02 05:48:00,
2013-03-02 00:54:00,33.9,31.6,30.04,West,277,0.0,11.0,91,0.00,,,0.00,Wunderground v.1.13,2013-03-02 05:54:00,
2013-03-02 00:59:00,33.9,31.6,30.04,West,277,0.0,11.0,91,0.00,,,0.00,Wunderground v.1.13,2013-03-02 05:59:00,
2013-03-02 01:04:00,33.8,31.5,30.04,West,277,1.0,11.0,91,0.00,,,0.00,Wunderground v.1.13,2013-03-02 06:04:00,
2013-03-02 01:09:00,33.8,31.5,30.04,West,277,1.0,11.0,91,0.00,,,0.00,Wunderground v.1.13,2013-03-02 06:09:00,
2013-03-02 01:14:00,33.8,31.5,30.04,West,277,2.0,11.0,91,0.00,,,0.00,Wunderground v.1.13,2013-03-02 06:14:00,
2013-03-02 01:20:00,33.8,31.5,30.04,West,277,1.0,11.0,91,0.00,,,0.00,Wunderground v.1.13,2013-03-02 06:20:00,
2013-03-02 01:25:00,33.8,31.5,30.04,West,277,1.0,1.0,91,0.00,,,0.00,Wunderground v.1.13,2013-03-02 06:25:00,
2013-03-02 01:30:00,33.8,31.5,30.04,West,277,1.0,11.0,91,0.00,,,0.00,Wunderground v.1.13,2013-03-02 06:30:00,
2013-03-02 01:35:00,33.9,31.6,30.04,West,277,1.0,1.0,91,0.00,,,0.00,Wunderground v.1.13,2013-03-02 06:35:00,
2013-03-02 01:40:00,33.8,31.5,30.04,West,277,0.0,11.0,91,0.00,,,0.00,Wunderground v.1.13,2013-03-02 06:40:00,
2013-03-02 01:45:00,33.8,31.5,30.04,West,277,0.0,11.0,91,0.00,,,0.00,Wunderground v.1.13,2013-03-02 06:45:00,
2013-03-02 01:51:00,33.8,31.5,30.04,West,277,2.0,11.0,91,0.00,,,0.00,Wunderground v.1.13,2013-03-02 06:51:00,
2013-03-02 01:56:00,33.7,31.4,30.04,WNW,289,3.0,11.0,91,0.00,,,0.00,Wunderground v.1.13,2013-03-02 06:56:00,
2013-03-02 02:01:00,33.7,31.4,30.04,WNW,290,4.0,11.0,91,0.00,,,0.00,Wunderground v.1.13,2013-03-02 07:01:00,
2013-03-02 02:06:00,33.7,31.1,30.04,WNW,290,4.0,11.0,90,0.00,,,0.00,Wunderground v.1.13,2013-03-02 07:06:00,
2013-03-02 02:11:00,33.7,31.1,30.04,WNW,290,4.0,11.0,90,0.00,,,0.00,Wunderground v.1.13,2013-03-02 07:11:00,
2013-03-02 02:16:00,33.7,31.1,30.04,WNW,290,3.0,11.0,90,0.00,,,0.00,Wunderground v.1.13,2013-03-02 07:16:00,
2013-03-02 02:22:00,33.7,31.1,30.04,WNW,290,3.0,11.0,90,0.00,,,0.00,Wunderground v.1.13,2013-03-02 07:22:00,
2013-03-02 02:28:00,33.8,31.2,30.04,WNW,290,1.0,11.0,90,0.00,,,0.00,Wunderground v.1.13,2013-03-02 07:28:00,
2013-03-02 02:33:00,33.8,31.2,30.04,WNW,290,1.0,11.0,90,0.00,,,0.00,Wunderground v.1.13,2013-03-02 07:33:00,
2013-03-02 02:38:00,33.8,30.9,30.04,WNW,290,0.0,11.0,89,0.00,,,0.00,Wunderground v.1.13,2013-03-02 07:38:00,
2013-03-02 02:44:00,33.8,30.9,30.03,WNW,290,0.0,11.0,89,0.00,,,0.00,Wunderground v.1.13,2013-03-02 07:44:00,
2013-03-02 02:49:00,33.7,31.1,30.03,WNW,290,0.0,11.0,90,0.00,,,0.00,Wunderground v.1.13,2013-03-02 07:49:00,
2013-03-02 02:54:00,33.7,31.1,30.03,WNW,290,0.0,11.0,90,0.00,,,0.00,Wunderground v.1.13,2013-03-02 07:54:00,
2013-03-02 02:59:00,33.7,31.1,30.03,WNW,290,0.0,11.0,90,0.00,,,0.00,Wunderground v.1.13,2013-03-02 07:59:00,
2013-03-02 03:04:00,33.6,31.0,30.02,WNW,290,0.0,11.0,90,0.00,,,0.00,Wunderground v.1.13,2013-03-02 08:04:00,
2013-03-02 03:10:00,33.6,31.0,30.02,WNW,290,0.0,11.0,90,0.00,,,0.00,Wunderground v.1.13,2013-03-02 08:10:00,
2013-03-02 03:15:00,33.5,30.9,30.02,WNW,290,0.0,11.0,90,0.00,,,0.00,Wunderground v.1.13,2013-03-02 08:15:00,
2013-03-02 03:20:00,33.5,30.9,30.02,WNW,290,0.0,11.0,90,0.00,,,0.00,Wunderground v.1.13,2013-03-02 08:20:00,
2013-03-02 03:25:00,33.4,30.8,30.02,WNW,290,0.0,11.0,90,0.00,,,0.00,Wunderground v.1.13,2013-03-02 08:25:00,
2013-03-02 03:30:00,33.4,30.8,30.02,WNW,290,1.0,1.0,90,0.00,,,0.00,Wunderground v.1.13,2013-03-02 08:30:00,
2013-03-02 03:36:00,33.3,30.7,30.02,WNW,290,0.0,11.0,90,0.00,,,0.00,Wunderground v.1.13,2013-03-02 08:36:00,
2013-03-02 03:41:00,33.3,30.7,30.02,WNW,290,1.0,11.0,90,0.00,,,0.00,Wunderground v.1.13,2013-03-02 08:41:00,
2013-03-02 03:46:00,33.2,30.6,30.02,WNW,290,2.0,11.0,90,0.00,,,0.00,Wunderground v.1.13,2013-03-02 08:46:00,
2013-03-02 03:51:00,33.2,30.9,30.02,WNW,290,1.0,11.0,91,0.00,,,0.00,Wunderground v.1.13,2013-03-02 08:51:00,
2013-03-02 03:56:00,33.1,30.8,30.01,WNW,290,1.0,11.0,91,0.00,,,0.00,Wunderground v.1.13,2013-03-02 08:56:00,
2013-03-02 04:01:00,33.1,30.8,30.01,WNW,290,1.0,11.0,91,0.00,,,0.00,Wunderground v.1.13,2013-03-02 09:01:00,
2013-03-02 04:07:00,33.0,30.7,30.01,WNW,290,1.0,11.0,91,0.00,,,0.00,Wunderground v.1.13,2013-03-02 09:07:00,
2013-03-02 04:12:00,33.0,30.7,30.01,WNW,290,1.0,11.0,91,0.00,,,0.00,Wunderground v.1.13,2013-03-02 09:12:00,
2013-03-02 04:17:00,32.9,30.6,30.01,WNW,290,1.0,11.0,91,0.00,,,0.00,Wunderground v.1.13,2013-03-02 09:17:00,
2013-03-02 04:22:00,32.9,30.6,30.01,WNW,290,1.0,11.0,91,0.00,,,0.00,Wunderground v.1.13,2013-03-02 09:22:00,
2013-03-02 04:28:00,32.8,30.5,30.01,WNW,290,1.0,11.0,91,0.00,,,0.00,Wunderground v.1.13,2013-03-02 09:28:00,
2013-03-02 04:33:00,32.8,30.5,30.01,WNW,290,1.0,11.0,91,0.00,,,0.00,Wunderground v.1.13,2013-03-02 09:33:00,
2013-03-02 04:38:00,32.8,30.5,30.01,WNW,290,1.0,11.0,91,0.00,,,0.00,Wunderground v.1.13,2013-03-02 09:38:00,
2013-03-02 04:44:00,32.7,30.4,30.01,WNW,290,1.0,11.0,91,0.00,,,0.00,Wunderground v.1.13,2013-03-02 09:44:00,
2013-03-02 04:50:00,32.7,30.4,30.01,WNW,290,0.0,11.0,91,0.00,,,0.00,Wunderground v.1.13,2013-03-02 09:50:00,
2013-03-02 04:55:00,32.7,30.4,30.01,WNW,290,1.0,1.0,91,0.00,,,0.00,Wunderground v.1.13,2013-03-02 09:55:00,
2013-03-02 05:00:00,32.6,30.3,30.01,WNW,290,1.0,11.0,91,0.00,,,0.00,Wunderground v.1.13,2013-03-02 10:00:00,
2013-03-02 05:06:00,32.6,30.3,30.01,WNW,290,1.0,11.0,91,0.00,,,0.00,Wunderground v.1.13,2013-03-02 10:06:00,
2013-03-02 05:11:00,32.6,30.5,30.01,WNW,290,1.0,11.0,92,0.00,,,0.00,Wunderground v.1.13,2013-03-02 10:11:00,
2013-03-02 05:17:00,32.6,30.5,30.02,WNW,290,1.0,11.0,92,0.00,,,0.00,Wunderground v.1.13,2013-03-02 10:17:00,
2013-03-02 05:22:00,32.6,30.5,30.02,WNW,290,1.0,11.0,92,0.00,,,0.00,Wunderground v.1.13,2013-03-02 10:22:00,
2013-03-02 05:27:00,32.6,30.5,30.01,WNW,290,1.0,11.0,92,0.00,,,0.00,Wunderground v.1.13,2013-03-02 10:27:00,
2013-03-02 05:33:00,32.5,30.4,30.02,WNW,290,0.0,11.0,92,0.00,,,0.00,Wunderground v.1.13,2013-03-02 10:33:00,
2013-03-02 05:38:00,32.5,30.4,30.02,WNW,290,1.0,11.0,92,0.00,,,0.00,Wunderground v.1.13,2013-03-02 10:38:00,
2013-03-02 05:44:00,32.4,30.3,30.02,WNW,290,0.0,11.0,92,0.00,,,0.00,Wunderground v.1.13,2013-03-02 10:44:00,
2013-03-02 05:49:00,32.4,30.3,30.02,WNW,290,0.0,11.0,92,0.00,,,0.00,Wunderground v.1.13,2013-03-02 10:49:00,
2013-03-02 05:54:00,32.4,30.3,30.02,WNW,290,0.0,11.0,92,0.00,,,0.00,Wunderground v.1.13,2013-03-02 10:54:00,
2013-03-02 06:00:00,32.3,30.2,30.02,WNW,290,0.0,11.0,92,0.00,,,0.00,Wunderground v.1.13,2013-03-02 11:00:00,
2013-03-02 06:05:00,32.3,30.2,30.02,WNW,290,0.0,11.0,92,0.00,,,0.00,Wunderground v.1.13,2013-03-02 11:05:00,
2013-03-02 06:10:00,32.3,30.2,30.02,WNW,290,1.0,1.0,92,0.00,,,0.00,Wunderground v.1.13,2013-03-02 11:10:00,
2013-03-02 06:15:00,32.3,30.2,30.02,WNW,290,1.0,1.0,92,0.00,,,0.00,Wunderground v.1.13,2013-03-02 11:15:00,
2013-03-02 06:21:00,32.3,30.2,30.02,WNW,290,1.0,11.0,92,0.00,,,0.00,Wunderground v.1.13,2013-03-02 11:21:00,
2013-03-02 06:26:00,32.3,30.2,30.02,WNW,290,1.0,11.0,92,0.00,,,0.00,Wunderground v.1.13,2013-03-02 11:26:00,
2013-03-02 06:31:00,32.3,30.2,30.02,WNW,290,1.0,11.0,92,0.00,,,0.00,Wunderground v.1.13,2013-03-02 11:31:00,
2013-03-02 06:36:00,32.2,30.1,30.02,WNW,290,0.0,3.0,92,0.00,,,0.00,Wunderground v.1.13,2013-03-02 11:36:00,
2013-03-02 06:41:00,32.1,30.0,30.02,WNW,290,1.0,11.0,92,0.00,,,0.00,Wunderground v.1.13,2013-03-02 11:41:00,
2013-03-02 06:46:00,32.1,30.0,30.02,WNW,290,1.0,11.0,92,0.00,,,0.00,Wunderground v.1.13,2013-03-02 11:46:00,
2013-03-02 06:52:00,31.9,29.8,30.02,WNW,290,2.0,11.0,92,0.00,,,0.00,Wunderground v.1.13,2013-03-02 11:52:00,
2013-03-02 06:57:00,31.8,29.7,30.02,WNW,290,1.0,11.0,92,0.00,,,0.00,Wunderground v.1.13,2013-03-02 11:57:00,
2013-03-02 07:02:00,31.7,29.6,30.02,WNW,290,1.0,11.0,92,0.00,,,0.00,Wunderground v.1.13,2013-03-02 12:02:00,
2013-03-02 07:07:00,31.6,29.5,30.02,WNW,290,1.0,11.0,92,0.00,,,0.00,Wunderground v.1.13,2013-03-02 12:07:00,
2013-03-02 07:12:00,31.5,29.4,30.03,WNW,290,2.0,11.0,92,0.00,,,0.00,Wunderground v.1.13,2013-03-02 12:12:00,
2013-03-02 07:18:00,31.5,29.4,30.03,WNW,290,1.0,11.0,92,0.00,,,0.00,Wunderground v.1.13,2013-03-02 12:18:00,
2013-03-02 07:23:00,31.5,29.4,30.03,WNW,290,1.0,11.0,92,0.00,,,0.00,Wunderground v.1.13,2013-03-02 12:23:00,
2013-03-02 07:28:00,31.6,29.5,30.03,WNW,290,1.0,11.0,92,0.00,,,0.00,Wunderground v.1.13,2013-03-02 12:28:00,
2013-03-02 07:33:00,31.7,29.6,30.03,WNW,290,1.0,11.0,92,0.00,,,0.00,Wunderground v.1.13,2013-03-02 12:33:00,
2013-03-02 07:38:00,31.7,29.6,30.03,WNW,290,2.0,11.0,92,0.00,,,0.00,Wunderground v.1.13,2013-03-02 12:38:00,
2013-03-02 07:43:00,31.9,29.8,30.03,WNW,290,2.0,11.0,92,0.00,,,0.00,Wunderground v.1.13,2013-03-02 12:43:00,
2013-03-02 07:49:00,32.0,29.9,30.04,WNW,289,2.0,11.0,92,0.00,,,0.00,Wunderground v.1.13,2013-03-02 12:49:00,
2013-03-02 07:54:00,32.1,30.0,30.04,WNW,288,3.0,11.0,92,0.00,,,0.00,Wunderground v.1.13,2013-03-02 12:54:00,
2013-03-02 07:59:00,32.1,30.0,30.04,SSW,205,3.0,11.0,92,0.00,,,0.00,Wunderground v.1.13,2013-03-02 12:59:00,
2013-03-02 08:04:00,32.2,30.1,30.04,WSW,250,2.0,11.0,92,0.00,,,0.00,Wunderground v.1.13,2013-03-02 13:04:00,
2013-03-02 08:09:00,32.3,30.2,30.04,WSW,249,2.0,11.0,92,0.00,,,0.00,Wunderground v.1.13,2013-03-02 13:09:00,
2013-03-02 08:14:00,32.3,30.2,30.04,WSW,252,2.0,11.0,92,0.00,,,0.00,Wunderground v.1.13,2013-03-02 13:14:00,
2013-03-02 08:20:00,32.3,30.2,30.04,WSW,254,3.0,3.0,92,0.00,,,0.00,Wunderground v.1.13,2013-03-02 13:20:00,
2013-03-02 08:26:00,32.5,30.4,30.04,West,259,3.0,11.0,92,0.00,,,0.00,Wunderground v.1.13,2013-03-02 13:26:00,
2013-03-02 08:31:00,32.5,30.4,30.04,WSW,254,4.0,11.0,92,0.00,,,0.00,Wunderground v.1.13,2013-03-02 13:31:00,
2013-03-02 08:36:00,32.7,30.6,30.05,WSW,254,3.0,11.0,92,0.00,,,0.00,Wunderground v.1.13,2013-03-02 13:36:00,
2013-03-02 08:42:00,32.8,30.7,30.05,West,263,3.0,11.0,92,0.00,,,0.00,Wunderground v.1.13,2013-03-02 13:42:00,
2013-03-02 08:48:00,33.0,30.9,30.05,West,263,4.0,11.0,92,0.00,,,0.00,Wunderground v.1.13,2013-03-02 13:48:00,
2013-03-02 08:53:00,33.1,31.0,30.05,West,268,5.0,11.0,92,0.00,,,0.00,Wunderground v.1.13,2013-03-02 13:53:00,
2013-03-02 08:58:00,33.4,31.3,30.05,West,269,5.0,11.0,92,0.00,,,0.00,Wunderground v.1.13,2013-03-02 13:58:00,
2013-03-02 09:03:00,33.8,31.7,30.05,West,265,4.0,11.0,92,0.00,,,0.00,Wunderground v.1.13,2013-03-02 14:03:00,
2013-03-02 09:08:00,34.1,32.0,30.05,West,265,3.0,11.0,92,0.00,,,0.00,Wunderground v.1.13,2013-03-02 14:08:00,
2013-03-02 09:13:00,34.2,31.8,30.05,West,277,4.0,11.0,91,0.00,,,0.00,Wunderground v.1.13,2013-03-02 14:13:00,
2013-03-02 09:19:00,34.2,31.8,30.05,West,273,4.0,11.0,91,0.00,,,0.00,Wunderground v.1.13,2013-03-02 14:19:00,
2013-03-02 09:24:00,34.3,31.9,30.05,West,273,3.0,11.0,91,0.00,,,0.00,Wunderground v.1.13,2013-03-02 14:24:00,
2013-03-02 09:29:00,34.2,31.6,30.04,West,276,3.0,11.0,90,0.00,,,0.00,Wunderground v.1.13,2013-03-02 14:29:00,
2013-03-02 09:34:00,34.4,31.8,30.05,West,276,4.0,11.0,90,0.00,,,0.00,Wunderground v.1.13,2013-03-02 14:34:00,
2013-03-02 09:40:00,34.4,31.8,30.05,West,278,5.0,11.0,90,0.00,,,0.00,Wunderground v.1.13,2013-03-02 14:40:00,
2013-03-02 09:45:00,34.4,31.8,30.04,West,277,6.0,6.0,90,0.00,,,0.00,Wunderground v.1.13,2013-03-02 14:45:00,
2013-03-02 09:51:00,34.8,31.9,30.05,West,276,5.0,11.0,89,0.00,,,0.00,Wunderground v.1.13,2013-03-02 14:51:00,
2013-03-02 09:56:00,35.0,31.8,30.05,WNW,282,6.0,11.0,88,0.00,,,0.00,Wunderground v.1.13,2013-03-02 14:56:00,
2013-03-02 10:01:00,35.1,31.9,30.05,West,281,6.0,11.0,88,0.00,,,0.00,Wunderground v.1.13,2013-03-02 15:01:00,
2013-03-02 10:07:00,35.1,31.6,30.05,WNW,294,5.0,11.0,87,0.00,,,0.00,Wunderground v.1.13,2013-03-02 15:07:00,
2013-03-02 10:12:00,35.3,31.8,30.05,WNW,294,4.0,11.0,87,0.00,,,0.00,Wunderground v.1.13,2013-03-02 15:12:00,
2013-03-02 10:17:00,35.3,31.5,30.05,WNW,293,4.0,11.0,86,0.00,,,0.00,Wunderground v.1.13,2013-03-02 15:17:00,
2013-03-02 10:22:00,35.3,31.5,30.05,WNW,287,5.0,11.0,86,0.00,,,0.00,Wunderground v.1.13,2013-03-02 15:22:00,
2013-03-02 10:28:00,35.3,31.5,30.05,WNW,298,5.0,11.0,86,0.00,,,0.00,Wunderground v.1.13,2013-03-02 15:28:00,
2013-03-02 10:33:00,35.3,31.2,30.05,WNW,303,4.0,11.0,85,0.00,,,0.00,Wunderground v.1.13,2013-03-02 15:33:00,
2013-03-02 10:38:00,35.4,31.3,30.05,WNW,294,5.0,11.0,85,0.00,,,0.00,Wunderground v.1.13,2013-03-02 15:38:00,
2013-03-02 10:43:00,35.7,31.6,30.04,WNW,292,5.0,11.0,85,0.00,,,0.00,Wunderground v.1.13,2013-03-02 15:43:00,
2013-03-02 10:48:00,36.1,31.7,30.04,WNW,292,3.0,11.0,84,0.00,,,0.00,Wunderground v.1.13,2013-03-02 15:48:00,
2013-03-02 10:53:00,36.3,31.9,30.04,West,278,4.0,11.0,84,0.00,,,0.00,Wunderground v.1.13,2013-03-02 15:53:00,
2013-03-02 10:59:00,36.9,32.2,30.05,West,267,4.0,11.0,83,0.00,,,0.00,Wunderground v.1.13,2013-03-02 15:59:00,
2013-03-02 11:04:00,37.3,32.3,30.04,West,276,4.0,11.0,82,0.00,,,0.00,Wunderground v.1.13,2013-03-02 16:04:00,
2013-03-02 11:10:00,37.2,31.6,30.05,NW,321,4.0,11.0,80,0.00,,,0.00,Wunderground v.1.13,2013-03-02 16:10:00,
2013-03-02 11:15:00,36.6,31.0,30.05,NNE,13,4.0,11.0,80,0.00,,,0.00,Wunderground v.1.13,2013-03-02 16:15:00,
2013-03-02 11:20:00,35.9,30.6,30.05,NNW,327,5.0,11.0,81,0.00,,,0.00,Wunderground v.1.13,2013-03-02 16:20:00,
2013-03-02 11:25:00,35.4,30.1,30.05,NW,309,6.0,11.0,81,0.00,,,0.00,Wunderground v.1.13,2013-03-02 16:25:00,
2013-03-02 11:30:00,35.2,30.0,30.05,WNW,289,6.0,11.0,81,0.00,,,0.00,Wunderground v.1.13,2013-03-02 16:30:00,
2013-03-02 11:36:00,35.4,30.5,30.05,WNW,289,4.0,11.0,82,0.00,,,0.00,Wunderground v.1.13,2013-03-02 16:36:00,
2013-03-02 11:41:00,35.7,30.7,30.05,NW,313,2.0,11.0,82,0.00,,,0.00,Wunderground v.1.13,2013-03-02 16:41:00,
2013-03-02 11:46:00,35.9,30.6,30.04,NNW,340,3.0,11.0,81,0.00,,,0.00,Wunderground v.1.13,2013-03-02 16:46:00,
2013-03-02 11:51:00,36.2,30.6,30.04,NW,325,4.0,11.0,80,0.00,,,0.00,Wunderground v.1.13,2013-03-02 16:51:00,
2013-03-02 11:57:00,36.6,30.1,30.05,NNW,331,6.0,11.0,77,0.00,,,0.00,Wunderground v.1.13,2013-03-02 16:57:00,
2013-03-02 12:02:00,36.7,29.2,30.05,NW,316,7.0,11.0,74,0.00,,,0.00,Wunderground v.1.13,2013-03-02 17:02:00,
2013-03-02 12:07:00,37.5,29.3,30.04,North,5,6.0,11.0,72,0.00,,,0.00,Wunderground v.1.13,2013-03-02 17:07:00,
2013-03-02 12:12:00,37.8,29.2,30.04,NW,317,7.0,11.0,71,0.00,,,0.00,Wunderground v.1.13,2013-03-02 17:12:00,
2013-03-02 12:17:00,38.2,29.3,30.04,NNW,343,8.0,11.0,70,0.00,,,0.00,Wunderground v.1.13,2013-03-02 17:17:00,
2013-03-02 12:23:00,38.6,29.3,30.04,NNW,329,7.0,11.0,69,0.00,,,0.00,Wunderground v.1.13,2013-03-02 17:23:00,
2013-03-02 12:28:00,38.4,28.8,30.04,NNW,333,8.0,11.0,68,0.00,,,0.00,Wunderground v.1.13,2013-03-02 17:28:00,
2013-03-02 12:33:00,38.1,28.8,30.04,NNW,336,7.0,11.0,69,0.00,,,0.00,Wunderground v.1.13,2013-03-02 17:33:00,
2013-03-02 12:38:00,37.8,28.5,30.04,NW,326,7.0,11.0,69,0.00,,,0.00,Wunderground v.1.13,2013-03-02 17:38:00,
2013-03-02 12:44:00,36.9,27.7,30.04,NW,307,9.0,12.0,69,0.00,,,0.00,Wunderground v.1.13,2013-03-02 17:44:00,
2013-03-02 12:50:00,36.5,28.0,30.04,North,350,8.0,8.0,71,0.00,,,0.00,Wunderground v.1.13,2013-03-02 17:50:00,
2013-03-02 12:55:00,36.4,27.9,30.04,NNW,342,5.0,5.0,71,0.00,,,0.00,Wunderground v.1.13,2013-03-02 17:55:00,
2013-03-02 13:01:00,36.4,28.2,30.04,NNW,333,5.0,11.0,72,0.00,,,0.00,Wunderground v.1.13,2013-03-02 18:01:00,
2013-03-02 13:07:00,36.3,27.4,30.03,NW,314,8.0,11.0,70,0.00,,,0.00,Wunderground v.1.13,2013-03-02 18:07:00,
2013-03-02 13:12:00,36.4,27.5,30.04,NNW,336,9.0,13.0,70,0.00,,,0.00,Wunderground v.1.13,2013-03-02 18:12:00,
2013-03-02 13:17:00,36.5,27.3,30.03,NNE,12,9.0,11.0,69,0.00,,,0.00,Wunderground v.1.13,2013-03-02 18:17:00,
2013-03-02 13:22:00,36.6,27.7,30.03,NW,318,7.0,12.0,70,0.00,,,0.00,Wunderground v.1.13,2013-03-02 18:22:00,
2013-03-02 13:28:00,36.5,27.6,30.03,WNW,294,7.0,15.0,70,0.00,,,0.00,Wunderground v.1.13,2013-03-02 18:28:00,
2013-03-02 13:33:00,36.3,27.8,30.03,WNW,302,9.0,12.0,71,0.00,,,0.00,Wunderground v.1.13,2013-03-02 18:33:00,
2013-03-02 13:38:00,36.1,27.6,30.03,NW,311,11.0,11.0,71,0.00,,,0.00,Wunderground v.1.13,2013-03-02 18:38:00,
2013-03-02 13:43:00,36.0,27.5,30.03,NNW,330,8.0,11.0,71,0.00,,,0.00,Wunderground v.1.13,2013-03-02 18:43:00,
2013-03-02 13:49:00,36.2,27.7,30.03,NNW,337,6.0,11.0,71,0.00,,,0.00,Wunderground v.1.13,2013-03-02 18:49:00,
2013-03-02 13:54:00,36.3,27.8,30.03,NW,313,6.0,11.0,71,0.00,,,0.00,Wunderground v.1.13,2013-03-02 18:54:00,
2013-03-02 13:59:00,36.5,28.0,30.03,NNW,338,8.0,13.0,71,0.00,,,0.00,Wunderground v.1.13,2013-03-02 18:59:00,
2013-03-02 14:04:00,36.6,27.7,30.03,North,360,9.0,12.0,70,0.00,,,0.00,Wunderground v.1.13,2013-03-02 19:04:00,
2013-03-02 14:09:00,36.7,27.5,30.03,NW,318,8.0,13.0,69,0.00,,,0.00,Wunderground v.1.13,2013-03-02 19:09:00,
2013-03-02 14:14:00,36.8,27.6,30.03,NW,321,7.0,12.0,69,0.00,,,0.00,Wunderground v.1.13,2013-03-02 19:14:00,
2013-03-02 14:20:00,36.8,26.9,30.03,North,355,7.0,11.0,67,0.00,,,0.00,Wunderground v.1.13,2013-03-02 19:20:00,
2013-03-02 14:25:00,36.9,27.0,30.03,NW,306,7.0,11.0,67,0.00,,,0.00,Wunderground v.1.13,2013-03-02 19:25:00,
2013-03-02 14:30:00,36.8,26.9,30.03,NW,323,9.0,12.0,67,0.00,,,0.00,Wunderground v.1.13,2013-03-02 19:30:00,
2013-03-02 14:36:00,36.6,26.7,30.03,WNW,299,11.0,11.0,67,0.00,,,0.00,Wunderground v.1.13,2013-03-02 19:36:00,
2013-03-02 14:41:00,36.6,26.7,30.03,NW,310,10.0,11.0,67,0.00,,,0.00,Wunderground v.1.13,2013-03-02 19:41:00,
2013-03-02 14:47:00,36.7,27.1,30.03,North,349,11.0,13.0,68,0.00,,,0.00,Wunderground v.1.13,2013-03-02 19:47:00,
2013-03-02 14:52:00,36.8,27.2,30.03,NW,305,10.0,14.0,68,0.00,,,0.00,Wunderground v.1.13,2013-03-02 19:52:00,
2013-03-02 14:57:00,36.9,27.3,30.03,NW,310,11.0,13.0,68,0.00,,,0.00,Wunderground v.1.13,2013-03-02 19:57:00,
2013-03-02 15:02:00,36.9,26.6,30.03,NW,313,11.0,14.0,66,0.00,,,0.00,Wunderground v.1.13,2013-03-02 20:02:00,
2013-03-02 15:07:00,36.9,26.6,30.03,NW,306,10.0,12.0,66,0.00,,,0.00,Wunderground v.1.13,2013-03-02 20:07:00,
2013-03-02 15:13:00,36.8,26.5,30.04,NW,315,11.0,14.0,66,0.00,,,0.00,Wunderground v.1.13,2013-03-02 20:13:00,
2013-03-02 15:18:00,36.8,26.5,30.04,NW,322,10.0,15.0,66,0.00,,,0.00,Wunderground v.1.13,2013-03-02 20:18:00,
2013-03-02 15:23:00,36.4,26.8,30.04,North,360,9.0,11.0,68,0.00,,,0.00,Wunderground v.1.13,2013-03-02 20:23:00,
2013-03-02 15:28:00,36.1,26.6,30.04,NW,304,8.0,11.0,68,0.00,,,0.00,Wunderground v.1.13,2013-03-02 20:28:00,
2013-03-02 15:33:00,35.8,27.0,30.04,NNW,343,9.0,14.0,70,0.00,,,0.00,Wunderground v.1.13,2013-03-02 20:33:00,
2013-03-02 15:39:00,35.5,26.3,30.04,NW,319,10.0,14.0,69,0.00,,,0.00,Wunderground v.1.13,2013-03-02 20:39:00,
2013-03-02 15:44:00,35.3,25.8,30.04,NNW,333,11.0,14.0,68,0.00,,,0.00,Wunderground v.1.13,2013-03-02 20:44:00,
2013-03-02 15:49:00,35.1,25.9,30.04,WNW,294,11.0,12.0,69,0.00,,,0.00,Wunderground v.1.13,2013-03-02 20:49:00,
2013-03-02 15:54:00,35.1,26.3,30.04,NW,323,9.0,12.0,70,0.00,,,0.00,Wunderground v.1.13,2013-03-02 20:54:00,
2013-03-02 16:00:00,35.2,26.7,30.05,WNW,284,9.0,13.0,71,0.00,,,0.00,Wunderground v.1.13,2013-03-02 21:00:00,
2013-03-02 16:05:00,35.1,25.9,30.05,WNW,303,11.0,11.0,69,0.00,,,0.00,Wunderground v.1.13,2013-03-02 21:05:00,
2013-03-02 16:10:00,35.1,25.9,30.05,NW,306,12.0,13.0,69,0.00,,,0.00,Wunderground v.1.13,2013-03-02 21:10:00,
2013-03-02 16:15:00,34.8,25.3,30.05,WNW,303,13.0,13.0,68,0.00,,,0.00,Wunderground v.1.13,2013-03-02 21:15:00,
2013-03-02 16:20:00,34.6,25.8,30.05,NNW,336,14.0,14.0,70,0.00,,,0.00,Wunderground v.1.13,2013-03-02 21:20:00,
2013-03-02 16:26:00,34.4,25.3,30.06,WNW,302,13.0,16.0,69,0.00,,,0.00,Wunderground v.1.13,2013-03-02 21:26:00,
2013-03-02 16:31:00,34.4,24.9,30.06,NW,323,14.0,16.0,68,0.00,,,0.01,Wunderground v.1.13,2013-03-02 21:31:00,
2013-03-02 16:36:00,34.4,25.3,30.06,WNW,285,13.0,13.0,69,0.00,,,0.01,Wunderground v.1.13,2013-03-02 21:36:00,
2013-03-02 16:41:00,34.2,25.1,30.06,NW,304,12.0,14.0,69,0.00,,,0.01,Wunderground v.1.13,2013-03-02 21:41:00,
2013-03-02 16:46:00,34.1,25.3,30.07,NNW,334,12.0,12.0,70,0.00,,,0.01,Wunderground v.1.13,2013-03-02 21:46:00,
2013-03-02 16:52:00,33.7,24.6,30.07,NW,313,11.0,18.0,69,0.00,,,0.01,Wunderground v.1.13,2013-03-02 21:52:00,
2013-03-02 16:57:00,33.4,24.3,30.07,NNW,337,13.0,15.0,69,0.00,,,0.01,Wunderground v.1.13,2013-03-02 21:57:00,
2013-03-02 17:03:00,33.1,23.3,30.07,NW,311,12.0,13.0,67,0.00,,,0.01,Wunderground v.1.13,2013-03-02 22:03:00,
2013-03-02 17:09:00,33.0,23.2,30.08,NNW,330,11.0,13.0,67,0.00,,,0.01,Wunderground v.1.13,2013-03-02 22:09:00,
2013-03-02 17:14:00,33.1,23.0,30.08,NW,318,10.0,13.0,66,0.00,,,0.01,Wunderground v.1.13,2013-03-02 22:14:00,
2013-03-02 17:20:00,33.2,23.4,30.08,WNW,292,10.0,11.0,67,0.00,,,0.01,Wunderground v.1.13,2013-03-02 22:20:00,
2013-03-02 17:25:00,33.2,23.4,30.08,NW,325,9.0,9.0,67,0.00,,,0.01,Wunderground v.1.13,2013-03-02 22:25:00,
2013-03-02 17:30:00,33.1,23.3,30.08,WNW,296,9.0,9.0,67,0.00,,,0.01,Wunderground v.1.13,2013-03-02 22:30:00,
2013-03-02 17:36:00,33.0,23.2,30.08,NW,323,9.0,12.0,67,0.00,,,0.01,Wunderground v.1.13,2013-03-02 22:36:00,
2013-03-02 17:41:00,32.9,22.8,30.08,NNW,332,9.0,11.0,66,0.00,,,0.01,Wunderground v.1.13,2013-03-02 22:41:00,
2013-03-02 17:46:00,32.8,22.7,30.09,NW,309,10.0,11.0,66,0.00,,,0.01,Wunderground v.1.13,2013-03-02 22:46:00,
2013-03-02 17:52:00,32.7,22.2,30.09,NW,309,11.0,13.0,65,0.00,,,0.01,Wunderground v.1.13,2013-03-02 22:52:00,
2013-03-02 17:57:00,32.7,22.6,30.09,NW,319,11.0,11.0,66,0.00,,,0.01,Wunderground v.1.13,2013-03-02 22:57:00,
2013-03-02 18:03:00,32.6,22.1,30.09,NW,306,10.0,18.0,65,0.00,,,0.01,Wunderground v.1.13,2013-03-02 23:03:00,
2013-03-02 18:08:00,32.6,22.5,30.09,WNW,303,10.0,11.0,66,0.00,,,0.01,Wunderground v.1.13,2013-03-02 23:08:00,
2013-03-02 18:13:00,32.6,22.5,30.09,NW,315,8.0,11.0,66,0.00,,,0.01,Wunderground v.1.13,2013-03-02 23:13:00,
2013-03-02 18:18:00,32.5,22.4,30.10,NW,310,7.0,20.0,66,0.00,,,0.01,Wunderground v.1.13,2013-03-02 23:18:00,
2013-03-02 18:23:00,32.4,22.3,30.10,NNW,336,10.0,14.0,66,0.00,,,0.01,Wunderground v.1.13,2013-03-02 23:23:00,
2013-03-02 18:28:00,32.3,22.6,30.10,NNW,339,9.0,11.0,67,0.00,,,0.01,Wunderground v.1.13,2013-03-02 23:28:00,
2013-03-02 18:34:00,32.2,22.8,30.10,NW,323,7.0,11.0,68,0.00,,,0.01,Wunderground v.1.13,2013-03-02 23:34:00,
2013-03-02 18:39:00,32.1,22.4,30.11,NW,309,8.0,13.0,67,0.00,,,0.01,Wunderground v.1.13,2013-03-02 23:39:00,
2013-03-02 18:44:00,32.0,22.3,30.11,NW,323,9.0,11.0,67,0.00,,,0.01,Wunderground v.1.13,2013-03-02 23:44:00,
2013-03-02 18:49:00,32.0,22.6,30.11,NW,311,7.0,11.0,68,0.00,,,0.01,Wunderground v.1.13,2013-03-02 23:49:00,
2013-03-02 18:54:00,31.9,22.5,30.11,WNW,298,6.0,11.0,68,0.00,,,0.01,Wunderground v.1.13,2013-03-02 23:54:00,
2013-03-02 19:00:00,31.7,21.6,30.11,NW,306,9.0,11.0,66,0.00,,,0.01,Wunderground v.1.13,2013-03-03 00:00:00,
2013-03-02 19:05:00,31.7,22.0,30.11,WNW,298,9.0,11.0,67,0.00,,,0.01,Wunderground v.1.13,2013-03-03 00:05:00,
2013-03-02 19:10:00,31.6,21.9,30.11,WNW,291,8.0,13.0,67,0.00,,,0.01,Wunderground v.1.13,2013-03-03 00:10:00,
2013-03-02 19:15:00,31.5,21.4,30.12,NW,317,10.0,11.0,66,0.00,,,0.01,Wunderground v.1.13,2013-03-03 00:15:00,
2013-03-02 19:20:00,31.4,21.7,30.12,WNW,285,10.0,11.0,67,0.00,,,0.01,Wunderground v.1.13,2013-03-03 00:20:00,
2013-03-02 19:25:00,31.4,22.1,30.12,WNW,297,9.0,11.0,68,0.00,,,0.01,Wunderground v.1.13,2013-03-03 00:25:00,
2013-03-02 19:31:00,31.3,22.0,30.12,WNW,294,9.0,12.0,68,0.00,,,0.01,Wunderground v.1.13,2013-03-03 00:31:00,
2013-03-02 19:36:00,31.3,22.3,30.12,WNW,288,8.0,11.0,69,0.00,,,0.01,Wunderground v.1.13,2013-03-03 00:36:00,
2013-03-02 19:41:00,31.2,22.2,30.12,WNW,286,6.0,7.0,69,0.00,,,0.01,Wunderground v.1.13,2013-03-03 00:41:00,
2013-03-02 19:46:00,31.2,22.5,30.12,WNW,286,7.0,11.0,70,0.00,,,0.01,Wunderground v.1.13,2013-03-03 00:46:00,
2013-03-02 19:51:00,31.1,22.5,30.12,WNW,293,7.0,11.0,70,0.00,,,0.01,Wunderground v.1.13,2013-03-03 00:51:00,
2013-03-02 19:57:00,31.1,22.8,30.12,WNW,288,6.0,11.0,71,0.00,,,0.01,Wunderground v.1.13,2013-03-03 00:57:00,
2013-03-02 20:02:00,31.0,22.7,30.13,WNW,286,7.0,12.0,71,0.00,,,0.01,Wunderground v.1.13,2013-03-03 01:02:00,
2013-03-02 20:07:00,30.9,22.6,30.13,NW,315,8.0,11.0,71,0.00,,,0.01,Wunderground v.1.13,2013-03-03 01:07:00,
2013-03-02 20:12:00,30.8,22.5,30.13,NW,313,7.0,11.0,71,0.00,,,0.01,Wunderground v.1.13,2013-03-03 01:12:00,
2013-03-02 20:17:00,30.8,22.8,30.13,NW,316,7.0,11.0,72,0.00,,,0.01,Wunderground v.1.13,2013-03-03 01:17:00,
2013-03-02 20:23:00,30.7,22.7,30.13,NNW,331,5.0,11.0,72,0.00,,,0.01,Wunderground v.1.13,2013-03-03 01:23:00,
2013-03-02 20:28:00,30.7,23.1,30.13,NW,321,4.0,11.0,73,0.00,,,0.01,Wunderground v.1.13,2013-03-03 01:28:00,
2013-03-02 20:33:00,30.6,23.0,30.13,North,355,4.0,11.0,73,0.00,,,0.01,Wunderground v.1.13,2013-03-03 01:33:00,
2013-03-02 20:38:00,30.5,22.9,30.13,North,355,4.0,11.0,73,0.00,,,0.01,Wunderground v.1.13,2013-03-03 01:38:00,
2013-03-02 20:43:00,30.4,22.4,30.13,NW,324,4.0,11.0,72,0.00,,,0.01,Wunderground v.1.13,2013-03-03 01:43:00,
2013-03-02 20:49:00,30.3,22.4,30.14,NW,319,6.0,12.0,72,0.00,,,0.01,Wunderground v.1.13,2013-03-03 01:49:00,
2013-03-02 20:54:00,30.2,22.3,30.14,NNW,331,5.0,11.0,72,0.00,,,0.01,Wunderground v.1.13,2013-03-03 01:54:00,
2013-03-02 20:59:00,30.2,22.3,30.14,NW,309,4.0,13.0,72,0.00,,,0.01,Wunderground v.1.13,2013-03-03 01:59:00,
2013-03-02 21:04:00,30.2,21.9,30.14,North,11,5.0,11.0,71,0.00,,,0.01,Wunderground v.1.13,2013-03-03 02:04:00,
2013-03-02 21:09:00,30.1,21.8,30.14,North,360,6.0,11.0,71,0.00,,,0.01,Wunderground v.1.13,2013-03-03 02:09:00,
2013-03-02 21:15:00,30.1,21.8,30.14,North,360,6.0,6.0,71,0.00,,,0.01,Wunderground v.1.13,2013-03-03 02:15:00,
2013-03-02 21:20:00,30.0,21.7,30.14,NNE,23,5.0,11.0,71,0.00,,,0.01,Wunderground v.1.13,2013-03-03 02:20:00,
2013-03-02 21:25:00,29.9,22.0,30.15,NNE,24,6.0,11.0,72,0.00,,,0.01,Wunderground v.1.13,2013-03-03 02:25:00,
2013-03-02 21:30:00,29.9,22.0,30.15,North,5,6.0,6.0,72,0.00,,,0.01,Wunderground v.1.13,2013-03-03 02:30:00,
2013-03-02 21:36:00,29.8,22.2,30.15,North,5,5.0,11.0,73,0.00,,,0.01,Wunderground v.1.13,2013-03-03 02:36:00,
2013-03-02 21:42:00,29.8,22.2,30.15,NNE,21,5.0,11.0,73,0.00,,,0.01,Wunderground v.1.13,2013-03-03 02:42:00,
2013-03-02 21:47:00,29.7,22.4,30.15,North,351,6.0,11.0,74,0.00,,,0.01,Wunderground v.1.13,2013-03-03 02:47:00,
2013-03-02 21:52:00,29.7,22.4,30.15,NNE,22,5.0,11.0,74,0.00,,,0.01,Wunderground v.1.13,2013-03-03 02:52:00,
2013-03-02 21:57:00,29.7,22.4,30.15,NNW,340,4.0,11.0,74,0.00,,,0.01,Wunderground v.1.13,2013-03-03 02:57:00,
2013-03-02 22:03:00,29.6,22.3,30.15,NNW,348,4.0,11.0,74,0.00,,,0.01,Wunderground v.1.13,2013-03-03 03:03:00,
2013-03-02 22:09:00,29.6,22.3,30.15,North,355,4.0,11.0,74,0.00,,,0.01,Wunderground v.1.13,2013-03-03 03:09:00,
2013-03-02 22:14:00,29.6,22.3,30.15,NNW,342,4.0,11.0,74,0.00,,,0.01,Wunderground v.1.13,2013-03-03 03:14:00,
2013-03-02 22:19:00,29.6,22.3,30.15,North,360,3.0,11.0,74,0.00,,,0.01,Wunderground v.1.13,2013-03-03 03:19:00,
2013-03-02 22:24:00,29.6,22.3,30.15,NNW,327,3.0,11.0,74,0.00,,,0.01,Wunderground v.1.13,2013-03-03 03:24:00,
2013-03-02 22:29:00,29.6,22.6,30.15,NNW,329,2.0,11.0,75,0.00,,,0.01,Wunderground v.1.13,2013-03-03 03:29:00,
2013-03-02 22:34:00,29.5,22.2,30.15,NNW,333,4.0,11.0,74,0.00,,,0.01,Wunderground v.1.13,2013-03-03 03:34:00,
2013-03-02 22:40:00,29.4,21.8,30.15,NW,324,6.0,6.0,73,0.00,,,0.01,Wunderground v.1.13,2013-03-03 03:40:00,
2013-03-02 22:45:00,29.4,21.8,30.15,NW,312,7.0,11.0,73,0.00,,,0.01,Wunderground v.1.13,2013-03-03 03:45:00,
2013-03-02 22:50:00,29.2,21.3,30.15,NNW,334,8.0,8.0,72,0.00,,,0.01,Wunderground v.1.13,2013-03-03 03:50:00,
2013-03-02 22:55:00,29.2,21.0,30.15,NNW,331,7.0,7.0,71,0.00,,,0.01,Wunderground v.1.13,2013-03-03 03:55:00,
2013-03-02 23:01:00,29.1,20.9,30.15,North,355,6.0,7.0,71,0.00,,,0.01,Wunderground v.1.13,2013-03-03 04:01:00,
2013-03-02 23:06:00,29.0,20.8,30.15,WNW,303,6.0,9.0,71,0.00,,,0.01,Wunderground v.1.13,2013-03-03 04:06:00,
2013-03-02 23:11:00,29.0,20.4,30.15,NW,325,7.0,7.0,70,0.00,,,0.01,Wunderground v.1.13,2013-03-03 04:11:00,
2013-03-02 23:16:00,29.0,20.1,30.14,NNW,331,7.0,11.0,69,0.00,,,0.01,Wunderground v.1.13,2013-03-03 04:16:00,
2013-03-02 23:21:00,29.0,19.8,30.15,NW,324,6.0,11.0,68,0.00,,,0.01,Wunderground v.1.13,2013-03-03 04:21:00,
2013-03-02 23:26:00,29.0,20.1,30.15,NNW,341,4.0,11.0,69,0.00,,,0.01,Wunderground v.1.13,2013-03-03 04:26:00,
2013-03-02 23:31:00,29.0,19.8,30.14,NNW,340,3.0,11.0,68,0.00,,,0.01,Wunderground v.1.13,2013-03-03 04:31:00,
2013-03-02 23:37:00,29.0,19.8,30.14,NW,311,4.0,11.0,68,0.00,,,0.01,Wunderground v.1.13,2013-03-03 04:37:00,
2013-03-02 23:42:00,29.0,19.4,30.14,NNW,333,5.0,11.0,67,0.00,,,0.01,Wunderground v.1.13,2013-03-03 04:42:00,
2013-03-02 23:47:00,28.9,19.3,30.14,NW,316,7.0,11.0,67,0.00,,,0.01,Wunderground v.1.13,2013-03-03 04:47:00,
2013-03-02 23:52:00,28.9,19.3,30.14,NW,321,7.0,11.0,67,0.00,,,0.01,Wunderground v.1.13,2013-03-03 04:52:00,
2013-03-02 23:57:00,28.8,19.2,30.14,NW,310,6.0,11.0,67,0.00,,,0.01,Wunderground v.1.13,2013-03-03 04:57:00,